Weather Roundup
Issued by NWS

Home | Current Version | Previous Version | Text Only | Print | Product List | Glossary On
Versions: 1 2 3 4 5 6 7 8 9 10 11 12 13 14 15 16 17 18 19 20 21 22 23 24 25 26 27 28 29 30 31 32 33 34 35 36 37 38 39 40 41 42 43 44 45 46 47 48 49 50
590
NZUS93 KARX 120410
HRRWXR

CURRENT HOURLY OBSERVATIONS ACROSS
MUCH OF THE UPPER MISSISSIPPI VALLEY
NATIONAL WEATHER SERVICE LA CROSSE WI
1000 PM CST THU FEB 11 2016


...SOUTHEAST MINNESOTA...


CITY           SKY/WX    TMP DP  RH WIND       PRES   REMARKS
ROCHESTER      FLURRIES  11   5  77 SW6       30.20S WCI   1
ROCHESTER/MAYO CLOUDY    14   7  73 W6        30.21F WCI   5
WINONA         CLOUDY    16   5  62 W3        30.26S
AUSTIN         FLURRIES  10   5  79 CALM      30.21R
ALBERT LEA     CLOUDY    12   7  79 SW3       30.21S
DODGE CENTER   FLURRIES  12   7  79 W7        30.19F WCI   2
PRESTON        CLOUDY    10   2  68 SW5       30.20F WCI   2
OWATONNA       CLOUDY    14   7  73 W10       30.22S WCI   1
FARIBAULT        N/A     14   7  73 SW6       30.22F WCI   5
$$

...ELSEWHERE IN MINNESOTA...


CITY           SKY/WX    TMP DP  RH WIND       PRES   REMARKS
MINNEAPOLIS    LGT SNOW  14   8  77 SW3       30.24S
INTNL FALLS    CLEAR      4  -3  73 NW15      30.13S WCI -14
DULUTH         MOCLDY    11  -2  56 W10       30.10F WCI  -3
RED WING       CLOUDY    16   7  67 W7        30.24S WCI   6
REDWOOD FALLS  CLOUDY    17  13  84 W6        30.23S WCI   9
MANKATO        CLOUDY    14   9  79 W8        30.23S WCI   3
WORTHINGTON    CLOUDY     7   3  85 W7        30.20S WCI  -5
FAIRMONT       CLOUDY    12   7  79 W7        30.22R WCI   2
$$

...SOUTHWEST WISCONSIN...


CITY           SKY/WX    TMP DP  RH WIND       PRES   REMARKS
LA CROSSE      CLOUDY    15   2  56 SW6       30.25F WCI   6
PRAIRIE DU CHI CLOUDY    14   4  64 CALM      30.27F
BOSCOBEL       CLOUDY    15   4  61 SW3       30.27F
LONE ROCK      CLOUDY    15   2  56 W6        30.25F WCI   6
PLATTEVILLE    CLOUDY    13   3  65 W3        30.24S
FORT MC COY    CLOUDY    15   1  55 SW5       30.23F WCI   7
CAMP DOUGLAS   CLOUDY    14   2  57 W13       30.20F WCI   0
VIROQUA        CLOUDY    12   3  66 W7        30.20S WCI   1
WIS DELLS      CLOUDY    15   1  53 W6        30.21S WCI   6
$$

...ELSEWHERE IN WISCONSIN...


CITY           SKY/WX    TMP DP  RH WIND       PRES   REMARKS
MILWAUKEE      CLOUDY    15   1  53 W7        30.23F WCI   5
MADISON        CLOUDY    16   0  49 CALM      30.22F
GREEN BAY      CLOUDY    15   0  51 SW8       30.17F WCI   4
EAU CLAIRE     CLOUDY    14   2  58 W10       30.20F WCI   1
BLACK RVR FLS  CLOUDY    15  -2  47 SW5       30.22S WCI   8
MEDFORD        CLOUDY    11  -1  59 W7        30.12S WCI   1
WAUSAU         CLOUDY    14  -1  51 W13       30.13F WCI   0
WIS RAPIDS     CLOUDY    15  -3  44 W9        30.19F WCI   3
MARSHFIELD     CLOUDY    14  -1  51 W9        30.14F WCI   2
RICE LAKE      CLOUDY    14   3  63 W7        30.19S WCI   3
$$

...NORTHEAST IOWA...


CITY           SKY/WX    TMP DP  RH WIND       PRES   REMARKS
WATERLOO       CLOUDY     9   5  84 NE3       30.25F
DUBUQUE        MOCLDY    13   3  64 CALM      30.24S
DECORAH        CLOUDY    10   1  67 CALM      30.22S
MASON CITY     CLOUDY     8   4  83 CALM      30.24R
CHARLES CITY   CLOUDY    10   3  72 SW3       30.23F
OELWEIN        CLOUDY    12   3  67 CALM      30.24S
$$

...ELSEWHERE IN IOWA...


CITY           SKY/WX    TMP DP  RH WIND       PRES   REMARKS
DES MOINES     LGT SNOW  19  14  81 E3        30.25S
IOWA CITY      CLOUDY    21  12  68 SW8       30.28S WCI  11
FORT DODGE     CLOUDY    12   9  85 S3        30.23S
MARSHALLTOWN   CLOUDY    15  11  83 SW5       30.23F WCI   8
CEDAR RAPIDS   PTCLDY    18  11  74 SW3       30.24F
$$

...NORTHERN ILLINOIS...


CITY           SKY/WX    TMP DP  RH WIND       PRES   REMARKS
CHICAGO-OHARE  MOCLDY    17   7  64 CALM      30.26F
CHICAGO-MIDWAY MOCLDY    19   4  51 SW5       30.27F WCI  12
MOLINE         CLOUDY    22   8  55 S5        30.26F WCI  16
ROCKFORD       MOCLDY    18   6  59 SW3       30.27F
PEORIA         CLOUDY    24   8  50 SW5       30.28F WCI  18
$$

NOTE: "FAIR" INDICATES FEW OR NO CLOUDS BELOW 12,000 FEET WITH NO
SIGNIFICANT WEATHER AND/OR OBSTRUCTIONS TO VISIBILITY. WIND
SPEEDS ARE IN MILES-PER-HOUR.




USA.gov is the U.S. government's official web portal to all federal, state and local government web resources and services.